sat.trackr.live / text

‹ back to catalog

STARLINK-32327

NORAD 61641 · 2024-191W

PAYLOAD ACTIVE UNKNOWN

§ Identity

Operator
Country
US
Launch date
2024-10-23
Launch site
AFETR
Launch vehicle
Mass (kg)
RCS (m²)

Purposes: comms

External: N2YO · Heavens-Above · Gunter

§ Orbital elements

Epoch: 2026-09-21T00:47:30.257376Z

Period
94.27 min
Inclination
43.0029°
Eccentricity
0.0001230
Mean motion
15.27575073 rev/d
Perigee alt
482.2 km
Apogee alt
483.9 km
Semi-major
6,861.2 km
B*
5.9958e-6
RAAN
131.1316°
Arg perigee
279.2640°
Mean anomaly
80.8072°
Rev number
10,741

§ Raw data

STARLINK-323271 61641U 24191W   26264.03298909 -.00000097  00000+0  59958-5 0  99922 61641  43.0029 131.1316 0001230 279.2640  80.8072 15.27575073107410

JSON: /api/v1/satellites/61641 · /tle

For live sub-satellite position, see the globe view (requires WebGL).

§ Visibility from observer

Set your observer location to see the next 7 days of passes ≥ 10°. The values pass through the URL so the page stays shareable.

No JS? Fill the form by hand. The geolocation button needs JavaScript.